<?xml version="1.0"?>
<gpx xmlns="http://www.topografix.com/GPX/1/1" xmlns:xsi="http://www.w3.org/2001/XMLSchema-instance" version="1.1" creator="GPX RubyGem 1.0.0 -- http://dougfales.github.io/gpx/" xsi:schemaLocation="http://www.topografix.com/GPX/1/1 http://www.topografix.com/GPX/1/1/gpx.xsd">
  <metadata>
    <name/>
    <time>2026-05-08T17:18:56+00:00</time>
    <bound minlat="90.0" minlon="180.0" maxlat="-90.0" maxlon="-180.0"/>
  </metadata>
  <trk>
    <name/>
    <trkseg>
      <trkpt lat="43.080088" lon="2.235198">
        <time>1970-01-01T00:00:00+00:00</time>
        <ele>176.0</ele>
      </trkpt>
      <trkpt lat="43.080272" lon="2.234647">
        <time>1970-01-01T00:00:00+00:00</time>
        <ele>176.0</ele>
      </trkpt>
      <trkpt lat="43.080267" lon="2.234534">
        <time>1970-01-01T00:00:00+00:00</time>
        <ele>176.0</ele>
      </trkpt>
      <trkpt lat="43.079964" lon="2.233993">
        <time>1970-01-01T00:00:00+00:00</time>
        <ele>180.0</ele>
      </trkpt>
      <trkpt lat="43.079916" lon="2.234074">
        <time>1970-01-01T00:00:00+00:00</time>
        <ele>180.0</ele>
      </trkpt>
      <trkpt lat="43.079693" lon="2.234503">
        <time>1970-01-01T00:00:00+00:00</time>
        <ele>181.0</ele>
      </trkpt>
      <trkpt lat="43.079502" lon="2.234949">
        <time>1970-01-01T00:00:00+00:00</time>
        <ele>180.0</ele>
      </trkpt>
      <trkpt lat="43.079412" lon="2.235021">
        <time>1970-01-01T00:00:00+00:00</time>
        <ele>180.0</ele>
      </trkpt>
      <trkpt lat="43.07932" lon="2.235054">
        <time>1970-01-01T00:00:00+00:00</time>
        <ele>181.0</ele>
      </trkpt>
      <trkpt lat="43.079291" lon="2.235265">
        <time>1970-01-01T00:00:00+00:00</time>
        <ele>180.0</ele>
      </trkpt>
      <trkpt lat="43.079707" lon="2.235823">
        <time>1970-01-01T00:00:00+00:00</time>
        <ele>174.0</ele>
      </trkpt>
      <trkpt lat="43.07983" lon="2.235981">
        <time>1970-01-01T00:00:00+00:00</time>
        <ele>173.0</ele>
      </trkpt>
      <trkpt lat="43.080132" lon="2.236736">
        <time>1970-01-01T00:00:00+00:00</time>
        <ele>171.0</ele>
      </trkpt>
      <trkpt lat="43.080328" lon="2.237129">
        <time>1970-01-01T00:00:00+00:00</time>
        <ele>172.0</ele>
      </trkpt>
      <trkpt lat="43.080504" lon="2.237474">
        <time>1970-01-01T00:00:00+00:00</time>
        <ele>178.0</ele>
      </trkpt>
      <trkpt lat="43.080585" lon="2.237639">
        <time>1970-01-01T00:00:00+00:00</time>
        <ele>181.0</ele>
      </trkpt>
      <trkpt lat="43.080607" lon="2.237754">
        <time>1970-01-01T00:00:00+00:00</time>
        <ele>182.0</ele>
      </trkpt>
      <trkpt lat="43.080609" lon="2.237889">
        <time>1970-01-01T00:00:00+00:00</time>
        <ele>184.0</ele>
      </trkpt>
      <trkpt lat="43.080395" lon="2.238435">
        <time>1970-01-01T00:00:00+00:00</time>
        <ele>186.0</ele>
      </trkpt>
      <trkpt lat="43.080373" lon="2.238526">
        <time>1970-01-01T00:00:00+00:00</time>
        <ele>186.0</ele>
      </trkpt>
      <trkpt lat="43.080344" lon="2.23938">
        <time>1970-01-01T00:00:00+00:00</time>
        <ele>189.0</ele>
      </trkpt>
      <trkpt lat="43.080356" lon="2.239468">
        <time>1970-01-01T00:00:00+00:00</time>
        <ele>189.0</ele>
      </trkpt>
      <trkpt lat="43.080392" lon="2.239516">
        <time>1970-01-01T00:00:00+00:00</time>
        <ele>190.0</ele>
      </trkpt>
      <trkpt lat="43.08045" lon="2.23954">
        <time>1970-01-01T00:00:00+00:00</time>
        <ele>191.0</ele>
      </trkpt>
      <trkpt lat="43.08051" lon="2.239528">
        <time>1970-01-01T00:00:00+00:00</time>
        <ele>192.0</ele>
      </trkpt>
      <trkpt lat="43.080549" lon="2.239482">
        <time>1970-01-01T00:00:00+00:00</time>
        <ele>193.0</ele>
      </trkpt>
      <trkpt lat="43.080566" lon="2.239412">
        <time>1970-01-01T00:00:00+00:00</time>
        <ele>193.0</ele>
      </trkpt>
      <trkpt lat="43.080574" lon="2.238956">
        <time>1970-01-01T00:00:00+00:00</time>
        <ele>194.0</ele>
      </trkpt>
      <trkpt lat="43.080594" lon="2.238806">
        <time>1970-01-01T00:00:00+00:00</time>
        <ele>194.0</ele>
      </trkpt>
      <trkpt lat="43.080633" lon="2.238718">
        <time>1970-01-01T00:00:00+00:00</time>
        <ele>195.0</ele>
      </trkpt>
      <trkpt lat="43.080677" lon="2.238683">
        <time>1970-01-01T00:00:00+00:00</time>
        <ele>195.0</ele>
      </trkpt>
      <trkpt lat="43.080751" lon="2.238683">
        <time>1970-01-01T00:00:00+00:00</time>
        <ele>197.0</ele>
      </trkpt>
      <trkpt lat="43.080817" lon="2.23872">
        <time>1970-01-01T00:00:00+00:00</time>
        <ele>199.0</ele>
      </trkpt>
      <trkpt lat="43.080849" lon="2.238791">
        <time>1970-01-01T00:00:00+00:00</time>
        <ele>200.0</ele>
      </trkpt>
      <trkpt lat="43.08087" lon="2.239112">
        <time>1970-01-01T00:00:00+00:00</time>
        <ele>202.0</ele>
      </trkpt>
      <trkpt lat="43.08094" lon="2.239366">
        <time>1970-01-01T00:00:00+00:00</time>
        <ele>203.0</ele>
      </trkpt>
      <trkpt lat="43.080982" lon="2.239469">
        <time>1970-01-01T00:00:00+00:00</time>
        <ele>204.0</ele>
      </trkpt>
      <trkpt lat="43.081221" lon="2.23981">
        <time>1970-01-01T00:00:00+00:00</time>
        <ele>210.0</ele>
      </trkpt>
      <trkpt lat="43.081385" lon="2.239988">
        <time>1970-01-01T00:00:00+00:00</time>
        <ele>212.0</ele>
      </trkpt>
      <trkpt lat="43.081453" lon="2.240096">
        <time>1970-01-01T00:00:00+00:00</time>
        <ele>214.0</ele>
      </trkpt>
      <trkpt lat="43.081485" lon="2.240191">
        <time>1970-01-01T00:00:00+00:00</time>
        <ele>214.0</ele>
      </trkpt>
      <trkpt lat="43.081605" lon="2.240739">
        <time>1970-01-01T00:00:00+00:00</time>
        <ele>215.0</ele>
      </trkpt>
      <trkpt lat="43.081671" lon="2.240928">
        <time>1970-01-01T00:00:00+00:00</time>
        <ele>218.0</ele>
      </trkpt>
      <trkpt lat="43.081792" lon="2.241089">
        <time>1970-01-01T00:00:00+00:00</time>
        <ele>223.0</ele>
      </trkpt>
      <trkpt lat="43.081847" lon="2.241207">
        <time>1970-01-01T00:00:00+00:00</time>
        <ele>225.0</ele>
      </trkpt>
      <trkpt lat="43.081896" lon="2.241375">
        <time>1970-01-01T00:00:00+00:00</time>
        <ele>226.0</ele>
      </trkpt>
      <trkpt lat="43.081992" lon="2.241682">
        <time>1970-01-01T00:00:00+00:00</time>
        <ele>228.0</ele>
      </trkpt>
      <trkpt lat="43.082006" lon="2.241856">
        <time>1970-01-01T00:00:00+00:00</time>
        <ele>230.0</ele>
      </trkpt>
      <trkpt lat="43.081987" lon="2.242101">
        <time>1970-01-01T00:00:00+00:00</time>
        <ele>231.0</ele>
      </trkpt>
      <trkpt lat="43.081991" lon="2.242384">
        <time>1970-01-01T00:00:00+00:00</time>
        <ele>233.0</ele>
      </trkpt>
      <trkpt lat="43.08199" lon="2.242843">
        <time>1970-01-01T00:00:00+00:00</time>
        <ele>236.0</ele>
      </trkpt>
      <trkpt lat="43.082062" lon="2.242642">
        <time>1970-01-01T00:00:00+00:00</time>
        <ele>235.0</ele>
      </trkpt>
      <trkpt lat="43.082104" lon="2.242588">
        <time>1970-01-01T00:00:00+00:00</time>
        <ele>236.0</ele>
      </trkpt>
      <trkpt lat="43.08233" lon="2.242786">
        <time>1970-01-01T00:00:00+00:00</time>
        <ele>242.0</ele>
      </trkpt>
      <trkpt lat="43.08249" lon="2.242846">
        <time>1970-01-01T00:00:00+00:00</time>
        <ele>247.0</ele>
      </trkpt>
      <trkpt lat="43.082744" lon="2.242812">
        <time>1970-01-01T00:00:00+00:00</time>
        <ele>253.0</ele>
      </trkpt>
      <trkpt lat="43.083331" lon="2.243">
        <time>1970-01-01T00:00:00+00:00</time>
        <ele>273.0</ele>
      </trkpt>
      <trkpt lat="43.083514" lon="2.243038">
        <time>1970-01-01T00:00:00+00:00</time>
        <ele>279.0</ele>
      </trkpt>
      <trkpt lat="43.083639" lon="2.243028">
        <time>1970-01-01T00:00:00+00:00</time>
        <ele>282.0</ele>
      </trkpt>
      <trkpt lat="43.083641" lon="2.242925">
        <time>1970-01-01T00:00:00+00:00</time>
        <ele>281.0</ele>
      </trkpt>
      <trkpt lat="43.083607" lon="2.242772">
        <time>1970-01-01T00:00:00+00:00</time>
        <ele>281.0</ele>
      </trkpt>
      <trkpt lat="43.083544" lon="2.242656">
        <time>1970-01-01T00:00:00+00:00</time>
        <ele>279.0</ele>
      </trkpt>
      <trkpt lat="43.083539" lon="2.242618">
        <time>1970-01-01T00:00:00+00:00</time>
        <ele>279.0</ele>
      </trkpt>
      <trkpt lat="43.083539" lon="2.242618">
        <time>1970-01-01T00:00:00+00:00</time>
        <ele>279.0</ele>
      </trkpt>
      <trkpt lat="43.083544" lon="2.242656">
        <time>1970-01-01T00:00:00+00:00</time>
        <ele>279.0</ele>
      </trkpt>
      <trkpt lat="43.083607" lon="2.242772">
        <time>1970-01-01T00:00:00+00:00</time>
        <ele>281.0</ele>
      </trkpt>
      <trkpt lat="43.083641" lon="2.242925">
        <time>1970-01-01T00:00:00+00:00</time>
        <ele>281.0</ele>
      </trkpt>
      <trkpt lat="43.083639" lon="2.243028">
        <time>1970-01-01T00:00:00+00:00</time>
        <ele>282.0</ele>
      </trkpt>
      <trkpt lat="43.083514" lon="2.243038">
        <time>1970-01-01T00:00:00+00:00</time>
        <ele>279.0</ele>
      </trkpt>
      <trkpt lat="43.083331" lon="2.243">
        <time>1970-01-01T00:00:00+00:00</time>
        <ele>273.0</ele>
      </trkpt>
      <trkpt lat="43.082744" lon="2.242812">
        <time>1970-01-01T00:00:00+00:00</time>
        <ele>253.0</ele>
      </trkpt>
      <trkpt lat="43.08249" lon="2.242846">
        <time>1970-01-01T00:00:00+00:00</time>
        <ele>247.0</ele>
      </trkpt>
      <trkpt lat="43.08233" lon="2.242786">
        <time>1970-01-01T00:00:00+00:00</time>
        <ele>242.0</ele>
      </trkpt>
      <trkpt lat="43.082104" lon="2.242588">
        <time>1970-01-01T00:00:00+00:00</time>
        <ele>236.0</ele>
      </trkpt>
      <trkpt lat="43.082062" lon="2.242642">
        <time>1970-01-01T00:00:00+00:00</time>
        <ele>235.0</ele>
      </trkpt>
      <trkpt lat="43.08199" lon="2.242843">
        <time>1970-01-01T00:00:00+00:00</time>
        <ele>236.0</ele>
      </trkpt>
      <trkpt lat="43.081991" lon="2.242384">
        <time>1970-01-01T00:00:00+00:00</time>
        <ele>233.0</ele>
      </trkpt>
      <trkpt lat="43.081987" lon="2.242101">
        <time>1970-01-01T00:00:00+00:00</time>
        <ele>231.0</ele>
      </trkpt>
      <trkpt lat="43.082006" lon="2.241856">
        <time>1970-01-01T00:00:00+00:00</time>
        <ele>230.0</ele>
      </trkpt>
      <trkpt lat="43.081992" lon="2.241682">
        <time>1970-01-01T00:00:00+00:00</time>
        <ele>228.0</ele>
      </trkpt>
      <trkpt lat="43.081896" lon="2.241375">
        <time>1970-01-01T00:00:00+00:00</time>
        <ele>226.0</ele>
      </trkpt>
      <trkpt lat="43.081847" lon="2.241207">
        <time>1970-01-01T00:00:00+00:00</time>
        <ele>225.0</ele>
      </trkpt>
      <trkpt lat="43.081792" lon="2.241089">
        <time>1970-01-01T00:00:00+00:00</time>
        <ele>223.0</ele>
      </trkpt>
      <trkpt lat="43.081671" lon="2.240928">
        <time>1970-01-01T00:00:00+00:00</time>
        <ele>218.0</ele>
      </trkpt>
      <trkpt lat="43.081605" lon="2.240739">
        <time>1970-01-01T00:00:00+00:00</time>
        <ele>215.0</ele>
      </trkpt>
      <trkpt lat="43.081485" lon="2.240191">
        <time>1970-01-01T00:00:00+00:00</time>
        <ele>214.0</ele>
      </trkpt>
      <trkpt lat="43.081453" lon="2.240096">
        <time>1970-01-01T00:00:00+00:00</time>
        <ele>214.0</ele>
      </trkpt>
      <trkpt lat="43.081385" lon="2.239988">
        <time>1970-01-01T00:00:00+00:00</time>
        <ele>212.0</ele>
      </trkpt>
      <trkpt lat="43.081221" lon="2.23981">
        <time>1970-01-01T00:00:00+00:00</time>
        <ele>210.0</ele>
      </trkpt>
      <trkpt lat="43.080982" lon="2.239469">
        <time>1970-01-01T00:00:00+00:00</time>
        <ele>204.0</ele>
      </trkpt>
      <trkpt lat="43.08094" lon="2.239366">
        <time>1970-01-01T00:00:00+00:00</time>
        <ele>203.0</ele>
      </trkpt>
      <trkpt lat="43.08087" lon="2.239112">
        <time>1970-01-01T00:00:00+00:00</time>
        <ele>202.0</ele>
      </trkpt>
      <trkpt lat="43.080849" lon="2.238791">
        <time>1970-01-01T00:00:00+00:00</time>
        <ele>200.0</ele>
      </trkpt>
      <trkpt lat="43.080817" lon="2.23872">
        <time>1970-01-01T00:00:00+00:00</time>
        <ele>199.0</ele>
      </trkpt>
      <trkpt lat="43.080751" lon="2.238683">
        <time>1970-01-01T00:00:00+00:00</time>
        <ele>197.0</ele>
      </trkpt>
      <trkpt lat="43.080677" lon="2.238683">
        <time>1970-01-01T00:00:00+00:00</time>
        <ele>195.0</ele>
      </trkpt>
      <trkpt lat="43.080633" lon="2.238718">
        <time>1970-01-01T00:00:00+00:00</time>
        <ele>195.0</ele>
      </trkpt>
      <trkpt lat="43.080594" lon="2.238806">
        <time>1970-01-01T00:00:00+00:00</time>
        <ele>194.0</ele>
      </trkpt>
      <trkpt lat="43.080574" lon="2.238956">
        <time>1970-01-01T00:00:00+00:00</time>
        <ele>194.0</ele>
      </trkpt>
      <trkpt lat="43.080566" lon="2.239412">
        <time>1970-01-01T00:00:00+00:00</time>
        <ele>193.0</ele>
      </trkpt>
      <trkpt lat="43.080549" lon="2.239482">
        <time>1970-01-01T00:00:00+00:00</time>
        <ele>193.0</ele>
      </trkpt>
      <trkpt lat="43.08051" lon="2.239528">
        <time>1970-01-01T00:00:00+00:00</time>
        <ele>192.0</ele>
      </trkpt>
      <trkpt lat="43.08045" lon="2.23954">
        <time>1970-01-01T00:00:00+00:00</time>
        <ele>191.0</ele>
      </trkpt>
      <trkpt lat="43.080392" lon="2.239516">
        <time>1970-01-01T00:00:00+00:00</time>
        <ele>190.0</ele>
      </trkpt>
      <trkpt lat="43.080356" lon="2.239468">
        <time>1970-01-01T00:00:00+00:00</time>
        <ele>189.0</ele>
      </trkpt>
      <trkpt lat="43.080344" lon="2.23938">
        <time>1970-01-01T00:00:00+00:00</time>
        <ele>189.0</ele>
      </trkpt>
      <trkpt lat="43.080373" lon="2.238526">
        <time>1970-01-01T00:00:00+00:00</time>
        <ele>186.0</ele>
      </trkpt>
      <trkpt lat="43.080395" lon="2.238435">
        <time>1970-01-01T00:00:00+00:00</time>
        <ele>186.0</ele>
      </trkpt>
      <trkpt lat="43.080609" lon="2.237889">
        <time>1970-01-01T00:00:00+00:00</time>
        <ele>184.0</ele>
      </trkpt>
      <trkpt lat="43.080607" lon="2.237754">
        <time>1970-01-01T00:00:00+00:00</time>
        <ele>182.0</ele>
      </trkpt>
      <trkpt lat="43.080585" lon="2.237639">
        <time>1970-01-01T00:00:00+00:00</time>
        <ele>181.0</ele>
      </trkpt>
      <trkpt lat="43.080504" lon="2.237474">
        <time>1970-01-01T00:00:00+00:00</time>
        <ele>178.0</ele>
      </trkpt>
      <trkpt lat="43.080328" lon="2.237129">
        <time>1970-01-01T00:00:00+00:00</time>
        <ele>172.0</ele>
      </trkpt>
      <trkpt lat="43.080132" lon="2.236736">
        <time>1970-01-01T00:00:00+00:00</time>
        <ele>171.0</ele>
      </trkpt>
      <trkpt lat="43.07983" lon="2.235981">
        <time>1970-01-01T00:00:00+00:00</time>
        <ele>173.0</ele>
      </trkpt>
      <trkpt lat="43.079707" lon="2.235823">
        <time>1970-01-01T00:00:00+00:00</time>
        <ele>174.0</ele>
      </trkpt>
      <trkpt lat="43.079291" lon="2.235265">
        <time>1970-01-01T00:00:00+00:00</time>
        <ele>180.0</ele>
      </trkpt>
      <trkpt lat="43.07932" lon="2.235054">
        <time>1970-01-01T00:00:00+00:00</time>
        <ele>181.0</ele>
      </trkpt>
      <trkpt lat="43.079412" lon="2.235021">
        <time>1970-01-01T00:00:00+00:00</time>
        <ele>180.0</ele>
      </trkpt>
      <trkpt lat="43.079502" lon="2.234949">
        <time>1970-01-01T00:00:00+00:00</time>
        <ele>180.0</ele>
      </trkpt>
      <trkpt lat="43.079693" lon="2.234503">
        <time>1970-01-01T00:00:00+00:00</time>
        <ele>181.0</ele>
      </trkpt>
      <trkpt lat="43.079916" lon="2.234074">
        <time>1970-01-01T00:00:00+00:00</time>
        <ele>180.0</ele>
      </trkpt>
      <trkpt lat="43.079964" lon="2.233993">
        <time>1970-01-01T00:00:00+00:00</time>
        <ele>180.0</ele>
      </trkpt>
      <trkpt lat="43.080267" lon="2.234534">
        <time>1970-01-01T00:00:00+00:00</time>
        <ele>176.0</ele>
      </trkpt>
      <trkpt lat="43.080272" lon="2.234647">
        <time>1970-01-01T00:00:00+00:00</time>
        <ele>176.0</ele>
      </trkpt>
      <trkpt lat="43.080088" lon="2.235198">
        <time>1970-01-01T00:00:00+00:00</time>
        <ele>176.0</ele>
      </trkpt>
    </trkseg>
  </trk>
</gpx>
